Air Resources Laboratory banner image
Air Resources Laboratory web site National Oceanic and Atmospheric Administration (NOAA)

ms roundup


Office: JAN

ASUS44 KJAN 211210
RWRMS

MISSISSIPPI HOURLY WEATHER ROUNDUP
NATIONAL WEATHER SERVICE JACKSON MS
700 AM CDT TUE AUG 21 2018

NOTE: "FAIR: INDICATES FEW OR NO CLOUDS BELOW 12,000 FEET WITH NO
SIGNIFICANT WEATHER AND/OR OBSTRUCTIONS TO VISIBILITY.

MSZ001>002-007>008-010>013-018>021-025>028-034>036-211300-
NORTHWEST MISSISSIPPI

CITY           SKY/WX    TMP DP  RH WIND       PRES   REMARKS
BATESVILLE     FAIR      70  68  94 SW3       29.99R
CLARKSDALE     CLEAR     70  70 100 SW6       29.99R
CLEVELAND      CLOUDY    69  69 100 MISG      30.00R
GREENWOOD      FAIR      71  70  96 CALM      30.00R
6HR MIN TEMP:  71; 6HR MAX TEMP:  73;

GREENVILLE     FAIR      70  67  90 W3        30.00R
6HR MIN TEMP:  70; 6HR MAX TEMP:  73;

OLIVE BRANCH   CLEAR     70  68  94 W9        29.96
OXFORD         MOCLDY    68  68 100 SW6       30.00R
TUNICA           N/A     68  64  88 SW3       29.98R
WINONA         CLOUDY    70  70 100 CALM      30.00R
$$

MSZ003>006-009-014>017-022>024-029>033-037>039-211300-
NORTHEAST MISSISSIPPI

CITY           SKY/WX    TMP DP  RH WIND       PRES   REMARKS
ABERDEEN       CLOUDY    72  72 100 SW5       30.01R
COLUMBUS AFB   CLOUDY    73  70  92 SW9       30.00R
6HR MIN TEMP:  73; 6HR MAX TEMP:  74;

CORINTH          N/A     72  68  88 W7        29.97R
GOLDN TRIANGLE FAIR      72  70  93 W3        30.01R
STARKVILLE     FAIR      70  68  94 CALM      30.02R
TUPELO         MOCLDY    72  68  87 S5        29.99R
6HR MIN TEMP:  71; 6HR MAX TEMP:  72;

$$

MSZ040-058-211300-
CENTRAL MISSISSIPPI

CITY           SKY/WX    TMP DP  RH WIND       PRES   REMARKS
JACKSON INTL   MOCLDY    73  70  90 SW5       30.02R
6HR MIN TEMP:  72; 6HR MAX TEMP:  73; 6HR PCP: TRACE;

JACKSON HAWKNS MOCLDY    73  72  96 SW3       30.02R
6HR MIN TEMP:  72; 6HR MAX TEMP:  73;

MADISON        PTSUNNY   72  72 100 SW3       30.02R
MERIDIAN KEY   MOCLDY    75  72  90 S3        30.02S
6HR MIN TEMP:  74; 6HR MAX TEMP:  76;

MERIDIAN NAS   MOCLDY    75  73  93 W5        30.02R
6HR MIN TEMP:  75; 6HR MAX TEMP:  76;

RAYMOND        PTSUNNY   73  73 100 CALM      30.02R
VICKSBURG VKS  CLOUDY    75  75 100 NW6       30.02R
$$

MSZ059>079-211300-
SOUTH MISSISSIPPI

CITY           SKY/WX    TMP DP  RH WIND       PRES   REMARKS
COLUMBIA       FAIR      75  73  94 CALM      30.08R FOG
HATTIESBURG    MOCLDY    78  76  93 SW3       30.04S
6HR MIN TEMP:  75; 6HR MAX TEMP:  78;

LAUREL         FAIR      75  75 100 CALM      30.04R
MCCOMB         FAIR      77  74  90 SW3       30.04R
6HR MIN TEMP:  75; 6HR MAX TEMP:  78; 6HR PCP:  0.23;

NATCHEZ        CLOUDY    75  73  93 SW6       30.03S
6HR MIN TEMP:  72; 6HR MAX TEMP:  75; 6HR PCP: TRACE;

PINE BELT      FAIR      76  75  97 VRB5      30.05R
6HR MIN TEMP:  72; 6HR MAX TEMP:  76;

$$

MSZ080>082-211300-
COASTAL MISSISSIPPI

CITY           SKY/WX    TMP DP  RH WIND       PRES   REMARKS
BAY ST LOUIS   PTCLDY    73  73 100 CALM      30.04
BILOXI         FAIR      81  77  89 W3        30.04R
6HR MIN TEMP:  80; 6HR MAX TEMP:  82;

PASCAGOULA     FAIR      79  76  90 CALM      30.05R
6HR MIN TEMP:  75; 6HR MAX TEMP:  82;

GULFPORT       FAIR      80  78  94 W5        30.04R
6HR MIN TEMP:  79; 6HR MAX TEMP:  82;

$$

LAZ007>009-015>016-023>026-211300-
NORTHEAST LOUISIANA

CITY           SKY/WX    TMP DP  RH WIND       PRES   REMARKS
BASTROP        FAIR      72  71  98 W5        30.03R FOG
TALLULAH/VBURG CLOUDY    73  73 100 VRB3      30.02R
6HR MIN TEMP:  71; 6HR MAX TEMP:  73; 6HR PCP: TRACE;

VIDALIA        CLOUDY    74  73  97 SW3       30.02R
$$